Weather in Ulyanovo

Russia / Kaliningrad Oblast     54°49′37″N   22°05′22″E
temp.,
°C
wind,
m/s
gust,
m/s
humid.,
%
clouds,
%
prec.,
mm/h
press.,
hPa
HPBL,
m
21 june, mon
mon2123:00+20sse411884 0.0 1014171
02:00+19sse49931 0.0 1013153
05:00+18se37925 0.0 1012135
08:00+23se58804 0.0 1012319
11:00+27sse68621 0.0 10121027
14:00+29sse46545 0.0 10121461
17:00+29se46650 0.0 10101275
20:00+24se48820 0.6 1010136
22 june, tue
tue2223:00+20se34880 0.0 101164
02:00+20se349069 0.3 101058
05:00+19se34920 0.0 100971
08:00+24sse35800 0.0 1010360
11:00+27s466712 0.8 10101288
14:00+27ssw4676100 5.3 1011930
17:00+28ssw136499 3.1 1011684
20:00+21nnw479599 4.3 1011154
23 june, wed
wed2323:00+17wnw4699100 0.9 1013163
02:00+16nw379887 1.4 1014212
05:00+15wnw359745 0.0 1014173
08:00+18nw3488100 1.1 1015312
11:00+20wnw457586 0.0 1017508
14:00+21nw357199 0.2 1017581
17:00+21nw4565100 0.0 1018582
20:00+17nw36845 0.0 1018178
24 june, thu
thu2423:00+14nw35925 0.0 101982
02:00+13nw22959 0.0 101919
05:00+13nnw22975 0.0 101946
08:00+18n22805 0.0 1019346
11:00+22n22650 0.0 1018709
14:00+25n22585 0.0 1018992
17:00+26ne12593 0.0 10161147
20:00+22ene11795 0.0 101512
25 june, fri
fri2523:00+18ene229149 0.0 101521
02:00+17ene4109599 0.0 1014209
05:00+16ene4987100 0.1 1012187
08:00+21e588390 0.1 1011340
11:00+27ese4670100 0.6 1009904
14:00+27sse587637 2.5 10081167
17:00+24s5108780 2.5 1009553
20:00+21sw610835 2.5 1009548